P 76-5 DEB

Satellite information

Favourite Embed

Satellite Type and Status

DEBRISIN ORBIT

Key statistics

Satellite P 76-5 DEB at a glance.

Uptime

17944

Days in orbit

Revolutions

≈ 13.7

Per day

Orbit

SSO

Sun Synchronous Orbit

Inclination

99.9

Latest

Satellite identification and parameters

Extended collection of information and parameters for P 76-5 DEB.

Object identification

Identified? True

Debris? True

Object name: P 76-5 DEB

International designator: 1976-047E

Object number (NORAD): 59984

Object ID (CCSDS): 59984

Country: UNITED STATES OF AMERICA (US)

Current information (Y/N): Y

RCS size: SMALL

Orbital parameters

Period: 104.925 minutes

Inclination: 99.8854 deg

SMA: 7369.084 km

Apoapsis: 1021.861 km

Periapsis: 960.036 km

RAAN: 25.4287 deg

Eccentricy: 0.0041949

Argument of periapsis: 134.2204 deg

Mean anomaly: 226.2399 deg

Mean motion: 13.7240578 rev/day

Mean motion (dot): 0.00000857 rev/day2

B* drag term: 0.00098293 1/REarth

Two-line elements (TLE)

Creation date: July 8, 2025, 2:27 a.m.

Reference frame: TEME

Reference center: EARTH

Epoch: July 7, 2025, 6:57 p.m. UTC

TLE line 0: 0 P 76-5 DEB

TLE line 1: 1 59984U 76047E 25188.79025828 .00000857 00000-0 98293-3 0 9998

TLE line 2: 2 59984 99.8854 25.4287 0041949 134.2204 226.2399 13.72405780224920

Live tracking on map

Real-time ground track for satellite P 76-5 DEB.

In-orbit conjunctions

A list of the most updated potential collisions computed for object P 76-5 DEB.

Target Orbit TCA Probability of collision Miss distance Type
FENGYUN 1C DEB SSO 2024-09-27 23:42:22 0.0002807426 290.0 (m) DEBRIS
SL-8 R/B LEO 2024-09-05 00:07:21 0.0001667654 135.0 (m) ROCKET BODY

Associated space launch

Experimental military satellite

P 76-5 DEB was lifted into orbit during the mission ‘Scout B-1 | Wideband’, on board a Scout B-1 space rocket.

The launch took place on May 22, 1976, 7:42 a.m. from Space Launch Complex 5.

For more information about the launch, click the button.

Launch to space Scout B-1 | Wideband
Scout B-1 | Wideband

Agency: N/A

Status: Launch Successful

Launch date: May 22, 1976, 7:42 a.m. UTC

Rocket: Scout B-1

Launch pad: Space Launch Complex 5

Location: Vandenberg SFB, CA, USA

...

Latest news about this satellite

There are no fresh news available about this satellite. Check back as we update our databases every day.


Newsletter sign-up

Weekly statistics, charts and insights to help you stay on top of the space industry.